Change the Weather History Date:

Saturday, February 16, 2013

  Actual Average Record
Temperature  
Mean Temperature 16 °F -  
Max Temperature 21 °F 28 °F 63 °F (1981)
Min Temperature 10 °F 8 °F -26 °F (1967)
Degree Days  
Heating Degree Days 50    
Moisture  
Dew Point 10 °F    
Average Humidity 78    
Maximum Humidity 86    
Minimum Humidity 68    
Precipitation  
Precipitation 0.00 in - - ()
Sea Level Pressure  
Sea Level Pressure 30.14 in    
Wind  
Wind Speed 2 mph (SE)    
Max Wind Speed 10 mph    
Max Gust Speed -    
Visibility 7 miles    
Events Snow    
Averages and records for this station are not official NWS values.
T = Trace of Precipitation, MM = Missing Value Source: NWS Daily Summary

Daily Weather History Graph

Daily Weather History Graph

Search for Another Location

Airport or City:

Trip Planner

Search our weather history database for the weather conditions in past years. The results will help you decide how hot, cold, wet, or windy it might be!

Date:

Astronomy

Feb. 16, 2013 Rise Set
Actual Time 7:15 AM CST 5:48 PM CST
Civil Twilight 6:46 AM CST 6:18 PM CST
Nautical Twilight 6:12 AM CST 6:52 PM CST
Astronomical Twilight 5:38 AM CST 7:26 PM CST
Moon 10:12 AM CST (2/16) 12:05 AM CST (2/16)
Length of Visible Light 11h 32m
Length of Day
10h 33m
Waxing Crescent, 39% of the Moon is Illuminated
Feb 16
Waxing Crescent
Feb 17
First Quarter
Feb 25
Full
Mar 4
Last Quarter
Mar 11
New

Hourly Weather History & Observations

Time (CST) Temp. Windchill Dew Point Humidity Pressure Visibility Wind Dir Wind Speed Gust Speed Precip Events Conditions
12:13 AM 10.4 °F - 6.8 °F 85% 30.26 in 4.0 mi Calm Calm - N/A Snow Light Snow
12:33 AM 10.4 °F 4.0 °F 6.8 °F 85% 30.26 in 4.0 mi WNW 3.5 mph - N/A Snow Light Snow
12:52 AM 10.4 °F - 6.8 °F 85% 30.26 in 4.0 mi Calm Calm - N/A Snow Light Snow
1:13 AM 10.4 °F - 6.8 °F 85% 30.25 in 4.0 mi Calm Calm - N/A Snow Light Snow
1:33 AM 12.2 °F - 8.6 °F 85% 30.24 in 4.0 mi Calm Calm - N/A Snow Light Snow
1:52 AM 12.2 °F - 8.6 °F 85% 30.24 in 5.0 mi Calm Calm - N/A Snow Light Snow
2:13 AM 12.2 °F - 8.6 °F 85% 30.24 in 3.0 mi Calm Calm - N/A Snow Light Snow
2:33 AM 12.2 °F - 8.6 °F 85% 30.23 in 3.0 mi Calm Calm - N/A Snow Light Snow
2:52 AM 12.2 °F - 8.6 °F 85% 30.23 in 7.0 mi Calm Calm - N/A Snow Light Snow
3:13 AM 12.2 °F - 8.6 °F 85% 30.22 in 5.0 mi Calm Calm - N/A Snow Light Snow
3:33 AM 12.2 °F - 8.6 °F 85% 30.21 in 4.0 mi Calm Calm - N/A Snow Light Snow
3:52 AM 12.2 °F - 8.6 °F 85% 30.21 in 3.0 mi Calm Calm - N/A Snow Light Snow
4:13 AM 14.0 °F 5.1 °F 10.4 °F 86% 30.20 in 7.0 mi West 5.8 mph - N/A Snow Light Snow
4:53 AM 12.2 °F 2.9 °F 8.6 °F 85% 30.19 in 7.0 mi West 5.8 mph - N/A Snow Light Snow
5:13 AM 10.4 °F 0.8 °F 6.8 °F 85% 30.19 in 7.0 mi West 5.8 mph - N/A Snow Light Snow
5:32 AM 10.4 °F 2.2 °F 6.8 °F 85% 30.19 in 7.0 mi West 4.6 mph - N/A Snow Light Snow
5:52 AM 10.4 °F - 6.8 °F 85% 30.18 in 5.0 mi Calm Calm - N/A Snow Light Snow
6:13 AM 10.4 °F - 6.8 °F 85% 30.18 in 5.0 mi Calm Calm - N/A Snow Light Snow
6:53 AM 10.4 °F - 6.8 °F 85% 30.19 in 4.0 mi Calm Calm - N/A Snow Light Snow
7:13 AM 10.4 °F - 6.8 °F 85% 30.19 in 4.0 mi Calm Calm - N/A Snow Light Snow
7:32 AM 10.4 °F 4.0 °F 6.8 °F 85% 30.19 in 4.0 mi West 3.5 mph - N/A Snow Light Snow
7:53 AM 12.2 °F 6.1 °F 8.6 °F 85% 30.19 in 1.0 mi West 3.5 mph - N/A Snow Light Snow
8:13 AM 12.2 °F - 8.6 °F 85% 30.19 in 0.5 mi Calm Calm - N/A Snow Light Snow
8:32 AM 12.2 °F - 8.6 °F 85% 30.19 in 0.8 mi Calm Calm - N/A Snow Light Snow
8:53 AM 12.2 °F - 6.8 °F 79% 30.18 in 1.5 mi Calm Calm - N/A Snow Light Snow
9:13 AM 12.2 °F - 6.8 °F 79% 30.18 in 1.2 mi Calm Calm - N/A Snow Light Snow
9:32 AM 12.2 °F - 6.8 °F 79% 30.17 in 1.5 mi Calm Calm - N/A Snow Light Snow
9:53 AM 12.2 °F - 6.8 °F 79% 30.16 in 1.5 mi Calm Calm - N/A Snow Light Snow
10:13 AM 12.2 °F - 6.8 °F 79% 30.16 in 1.8 mi Calm Calm - N/A Snow Light Snow
10:32 AM 12.2 °F - 6.8 °F 79% 30.16 in 5.0 mi Calm Calm - N/A Snow Light Snow
10:53 AM 14.0 °F - 8.6 °F 79% 30.15 in 10.0 mi Calm Calm - N/A   Clear
11:13 AM 15.8 °F 10.2 °F 8.6 °F 73% 30.15 in 10.0 mi South 3.5 mph - N/A   Clear
11:32 AM 15.8 °F 10.2 °F 8.6 °F 73% 30.15 in 10.0 mi South 3.5 mph - N/A   Clear
11:53 AM 15.8 °F 10.2 °F 8.6 °F 73% 30.15 in 10.0 mi South 3.5 mph - N/A   Clear
12:13 PM 15.8 °F 10.2 °F 8.6 °F 73% 30.14 in 10.0 mi South 3.5 mph - N/A   Clear
12:32 PM 17.6 °F 12.3 °F 8.6 °F 68% 30.14 in 10.0 mi South 3.5 mph - N/A   Clear
12:53 PM 17.6 °F 12.3 °F 10.4 °F 73% 30.13 in 10.0 mi South 3.5 mph - N/A   Clear
1:12 PM 17.6 °F 10.7 °F 10.4 °F 73% 30.13 in 10.0 mi South 4.6 mph - N/A   Clear
1:33 PM 17.6 °F 10.7 °F 10.4 °F 73% 30.12 in 10.0 mi SSW 4.6 mph - N/A   Clear
1:53 PM 19.4 °F 11.5 °F 10.4 °F 68% 30.11 in 10.0 mi South 5.8 mph - N/A   Clear
2:12 PM 19.4 °F 11.5 °F 12.2 °F 74% 30.11 in 10.0 mi South 5.8 mph - N/A   Clear
2:33 PM 19.4 °F 11.5 °F 12.2 °F 74% 30.10 in 10.0 mi South 5.8 mph - N/A   Clear
2:53 PM 21.2 °F 16.4 °F 12.2 °F 68% 30.10 in 10.0 mi SSE 3.5 mph - N/A   Clear
3:12 PM 21.2 °F 16.4 °F 12.2 °F 68% 30.10 in 10.0 mi South 3.5 mph - N/A   Clear
3:33 PM 21.2 °F 14.9 °F 12.2 °F 68% 30.09 in 10.0 mi ESE 4.6 mph - N/A   Scattered Clouds
3:53 PM 21.2 °F - 12.2 °F 68% 30.10 in 10.0 mi Calm Calm - N/A   Mostly Cloudy
4:12 PM 21.2 °F 16.4 °F 12.2 °F 68% 30.10 in 10.0 mi East 3.5 mph - N/A   Overcast
4:33 PM 21.2 °F 16.4 °F 12.2 °F 68% 30.10 in 10.0 mi East 3.5 mph - N/A   Overcast
4:53 PM 21.2 °F 14.9 °F 12.2 °F 68% 30.10 in 10.0 mi ENE 4.6 mph - N/A   Overcast
5:12 PM 19.4 °F 14.3 °F 12.2 °F 74% 30.10 in 10.0 mi ENE 3.5 mph - N/A   Overcast
5:33 PM 19.4 °F 12.8 °F 12.2 °F 74% 30.10 in 10.0 mi East 4.6 mph - N/A   Overcast
5:53 PM 19.4 °F 11.5 °F 12.2 °F 74% 30.10 in 10.0 mi East 5.8 mph - N/A   Overcast
6:12 PM 19.4 °F 11.5 °F 12.2 °F 74% 30.10 in 10.0 mi East 5.8 mph - N/A   Overcast
6:33 PM 19.4 °F 10.4 °F 12.2 °F 74% 30.10 in 10.0 mi East 6.9 mph - N/A   Overcast
6:53 PM 19.4 °F 8.6 °F 12.2 °F 74% 30.10 in 10.0 mi East 9.2 mph - N/A   Overcast
7:12 PM 19.4 °F 8.6 °F 12.2 °F 74% 30.09 in 10.0 mi East 9.2 mph - N/A   Overcast
7:33 PM 19.4 °F 8.6 °F 14.0 °F 80% 30.08 in 10.0 mi East 9.2 mph - N/A   Overcast
7:53 PM 19.4 °F 7.9 °F 14.0 °F 80% 30.08 in 10.0 mi ESE 10.4 mph - N/A   Overcast
8:12 PM 19.4 °F 8.6 °F 14.0 °F 80% 30.08 in 10.0 mi East 9.2 mph - N/A   Overcast
8:33 PM 19.4 °F 8.6 °F 14.0 °F 80% 30.08 in 10.0 mi ESE 9.2 mph - N/A   Overcast
8:52 PM 19.4 °F 9.5 °F 12.2 °F 74% 30.07 in 10.0 mi ESE 8.1 mph - N/A   Overcast
9:13 PM 19.4 °F 12.8 °F 12.2 °F 74% 30.08 in 10.0 mi East 4.6 mph - N/A   Overcast
9:33 PM 19.4 °F 12.8 °F 12.2 °F 74% 30.07 in 10.0 mi ESE 4.6 mph - N/A   Overcast
9:52 PM 17.6 °F 10.7 °F 12.2 °F 79% 30.07 in 10.0 mi ESE 4.6 mph - N/A   Mostly Cloudy
10:13 PM 17.6 °F 10.7 °F 12.2 °F 79% 30.06 in 10.0 mi ESE 4.6 mph - N/A   Scattered Clouds
10:33 PM 15.8 °F 10.2 °F 10.4 °F 79% 30.06 in 10.0 mi ESE 3.5 mph - N/A   Clear
10:52 PM 15.8 °F 8.6 °F 12.2 °F 86% 30.06 in 10.0 mi ESE 4.6 mph - N/A   Clear
11:13 PM 15.8 °F 8.6 °F 12.2 °F 86% 30.06 in 10.0 mi East 4.6 mph - N/A   Clear
11:33 PM 17.6 °F 10.7 °F 12.2 °F 79% 30.05 in 10.0 mi East 4.6 mph - N/A   Clear
11:52 PM 17.6 °F 10.7 °F 12.2 °F 79% 30.05 in 10.0 mi East 4.6 mph - N/A   Clear